Flag for Portugal Weather past 2 weeks in Portimão, Portugal

Now
75 °F

Sunny.


Feels Like: 77 °F
Forecast: 60 / 82 °F
Wind: 15 mph from Southeast

Location: Faro / Aeroporto

Current Time: May 27, 2015 at 12:14:08 PM

Latest Report: May 27, 2015 at 11:30 AM


Visibility: 10 mi

Pressure: 29.98 "Hg

Humidity: 69%

Dew point: 64 °F

Location of PortimãoLocation

Historic Weather in Portimão — Graph

°F

Portimão temperature yesterday

Maximum temperature yesterday: 73 °F (at 11:30 AM)
Minimum temperature yesterday: 61 °F (at 6:30 AM)
Average temperature yesterday: 68 °F

Past Weeks' High & Low Weather Summary

 TemperatureHumidityPressure
High91 °F (May 14, 1:30 PM)94% (May 23, 3:00 AM)30.18 "Hg (May 23, 3:00 AM)
Low57 °F (May 15, 5:30 AM)10% (May 14, 10:45 AM)29.83 "Hg (May 19, 4:30 AM)
Average72 °F53%30.03 "Hg
* Reported May 12 11:00 AM — May 27 11:00 AM, Portimão, Weather by CustomWeather, © 2015

Note: Actual official high and low records may vary slightly from our data, if they occured in-between our weather recording intervals... More about our weather records

Advertising

Portimão weather history for previous 24 hours

 ConditionsComfort  
Time TempWeatherWind HumidityBarometerVisibility
11:00 AM
Wed, May 27
75 °FSunny.15 mph69%29.98 "Hg10 mi
10:30 AM77 °FSunny.14 mph54%29.98 "Hg10 mi
10:00 AM75 °FSunny.10 mph61%29.98 "Hg10 mi
9:30 AM72 °FPassing clouds.7 mph65%29.98 "HgN/A
9:00 AM72 °FSunny.8 mph69%29.98 "Hg10 mi
8:30 AM72 °FPassing clouds.5 mph69%29.98 "HgN/A
8:00 AM68 °FSunny.5 mph73%29.95 "Hg10 mi
7:30 AM68 °FSunny.5 mph73%29.95 "Hg10 mi
7:00 AM66 °FClear.6 mph68%29.95 "Hg10 mi
6:30 AM68 °FClear.7 mph64%29.95 "Hg10 mi
6:00 AM66 °FClear.5 mph60%29.95 "Hg10 mi
5:30 AM64 °FClear.2 mph68%29.92 "Hg10 mi
4:30 AM66 °FClear.2 mph68%29.95 "Hg10 mi
4:00 AM66 °FPassing clouds.3 mph68%29.95 "HgN/A
3:30 AM68 °FClear.6 mph69%29.95 "Hg10 mi
3:00 AM68 °FClear.8 mph73%29.95 "Hg10 mi
2:30 AM68 °FClear.9 mph73%29.95 "Hg10 mi
2:00 AM70 °FClear.10 mph69%29.95 "Hg10 mi
1:30 AM70 °FClear.10 mph69%29.95 "Hg10 mi
1:00 AM70 °FClear.13 mph60%29.98 "Hg10 mi
12:30 AM70 °FClear.10 mph69%29.98 "Hg10 mi
12:00 AM70 °FClear.9 mph64%29.98 "Hg10 mi
11:30 PM
Tue, May 26
72 °FClear.9 mph57%29.98 "Hg10 mi
11:00 PM72 °FClear.9 mph57%29.98 "Hg10 mi
10:30 PM72 °FClear.8 mph69%29.98 "Hg10 mi
9:30 PM68 °FSunny.7 mph83%29.98 "Hg10 mi
9:00 PM68 °FSunny.7 mph83%29.98 "Hg10 mi
8:30 PM68 °FSunny.6 mph83%29.98 "Hg10 mi
8:00 PM68 °FSunny.8 mph83%29.98 "Hg10 mi
7:30 PM70 °FSunny.9 mph78%29.98 "Hg10 mi
7:00 PM70 °FSunny.9 mph78%29.98 "Hg10 mi
6:30 PM70 °FPassing clouds.7 mph78%29.98 "HgN/A
6:00 PM72 °FPassing clouds.9 mph69%30.01 "HgN/A
5:30 PM72 °FPassing clouds.10 mph69%30.01 "HgN/A
5:00 PM72 °FPassing clouds.10 mph65%30.01 "HgN/A
4:30 PM70 °FPassing clouds.10 mph73%30.01 "HgN/A
4:00 PM72 °FPassing clouds.10 mph69%30.01 "HgN/A
3:30 PM72 °FPassing clouds.10 mph69%30.04 "HgN/A
3:00 PM70 °FPassing clouds.10 mph73%30.04 "HgN/A
2:30 PM72 °FSunny.10 mph69%30.04 "Hg10 mi
2:00 PM72 °FScattered clouds.12 mph69%30.04 "HgN/A
1:30 PM73 °FPassing clouds.10 mph61%30.04 "HgN/A
1:00 PM73 °FPassing clouds.10 mph61%30.04 "HgN/A
12:30 PM73 °FPassing clouds.9 mph61%30.04 "HgN/A
12:00 PM73 °FPassing clouds.8 mph57%30.07 "HgN/A
Weather by CustomWeather, © 2015

See weather overviewHow to use our weather pages